Location: Sangrey
(48.2845°N, 109.8206°W)
Time: 07:08:10
(UTC+00:00)

N. Korean satellite - Pass Details

Date: 27 January 2022
Orbit: 438 x 478 km, 97.3° (Epoch: 21 May)

Event Time Altitude Azimuth Distance (km) Brightness Sun altitude
Rises 11:31:35 0° 29° (NNE) 2,637 10.8 -33.5°
Reaches altitude 10° 11:34:27 10° 53° (NE) 1,745 10.0 -33.1°
Maximum altitude 11:36:41 15° 90° (E) 1,446 9.7 -32.7°
Drops below altitude 10° 11:38:55 10° 127° (SE) 1,731 9.8 -32.3°
Sets 11:41:44 0° 151° (SSE) 2,602 10.5 -31.9°
